GW6152 Weather Reports


Display with metric or nautical units.
time (UTC)temp
F
wind
direction
speed
MPH
gust
MPH
rain 1hr
in
rain 24hr
in
rain mn
in
humidity
%
barometer
mb
20260906134310 77 46 0.0 0.0 0.00 0.00 0.00 89 1008.6
20260906133805 76 51 0.0 0.0 0.00 0.00 0.00 91 1009.0
20260906133301 75 88 0.0 0.0 0.00 0.00 0.00 94 1009.0
20260906132756 75 23 0.0 0.0 0.00 0.00 0.00 95 1009.0
20260906132251 74 264 0.0 0.0 0.00 0.00 0.00 96 1009.0
20260906131747 74 229 0.0 0.0 0.00 0.00 0.00 97 1009.0
20260906131242 74 123 0.0 0.0 0.00 0.00 0.00 97 1009.0
20260906130738 73 254 0.0 0.0 0.00 0.00 0.00 97 1008.6
20260906130238 73 219 0.0 0.0 0.00 0.00 0.00 98 1008.6
20260906125736 73 121 0.0 0.0 0.00 0.00 0.00 98 1008.6
20260906125234 72 53 0.0 0.0 0.00 0.00 0.00 98 1009.0
20260906124729 72 226 0.0 0.0 0.00 0.00 0.00 98 1008.6
20260906124225 72 27 0.0 0.0 0.00 0.00 0.00 98 1009.0
20260906123724 72 97 0.0 0.0 0.00 0.00 0.00 98 1008.6
20260906123219 71 127 0.0 0.0 0.00 0.00 0.00 98 1009.0
20260906122719 71 124 0.0 0.0 0.00 0.00 0.00 98 1009.0
20260906122214 71 122 0.0 0.0 0.00 0.00 0.00 98 1009.0
20260906121710 71 115 0.0 0.0 0.00 0.00 0.00 98 1009.0
20260906121207 71 123 0.0 0.0 0.00 0.00 0.00 99 1009.0
20260906120702 71 127 0.0 0.0 0.00 0.00 0.00 99 1009.0
20260906120200 71 97 0.0 0.0 0.00 0.00 0.00 98 1009.0
20260906115700 71 104 0.0 0.0 0.00 0.00 0.00 98 1009.0
20260906115155 71 59 0.0 0.0 0.00 0.00 0.00 98 1008.6
20260906114654 71 87 0.0 0.0 0.00 0.00 0.00 98 1009.0
20260906114149 71 29 0.0 0.0 0.00 0.00 0.00 98 1009.0
20260906113643 71 93 0.0 0.0 0.00 0.00 0.00 98 1009.0
20260906113143 71 76 0.0 0.0 0.00 0.00 0.00 98 1008.6
20260906112642 71 21 0.0 0.0 0.00 0.00 0.00 98 1008.6
20260906112140 71 48 0.0 0.0 0.00 0.00 0.00 98 1008.3
20260906111639 71 335 0.0 0.0 0.00 0.00 0.00 98 1008.3
20260906111134 71 24 0.0 0.0 0.00 0.00 0.00 98 1008.6
20260906110629 72 102 0.0 0.0 0.00 0.00 0.00 98 1008.6
20260906110130 72 100 0.0 0.0 0.00 0.00 0.00 98 1008.6
20260906105623 72 38 0.0 0.0 0.00 0.00 0.00 98 1008.3
20260906105120 72 100 0.0 0.0 0.00 0.00 0.00 98 1008.3
20260906104619 72 56 0.0 0.0 0.00 0.00 0.00 98 1008.3
20260906104113 72 18 0.0 0.0 0.00 0.00 0.00 98 1007.9
20260906103612 72 12 0.0 0.0 0.00 0.00 0.00 98 1007.9
20260906103102 72 299 0.0 0.0 0.00 0.00 0.00 98 1007.9
20260906102601 72 337 0.0 0.0 0.00 0.00 0.00 98 1007.6
20260906102056 72 184 0.0 0.0 0.00 0.00 0.00 98 1007.6
20260906101550 72 189 0.0 0.0 0.00 0.00 0.00 98 1007.6
20260906101045 72 147 0.0 0.0 0.00 0.00 0.00 97 1007.3
20260906100541 72 142 0.0 0.0 0.00 0.00 0.00 97 1007.3
20260906100041 72 143 0.0 0.0 0.00 0.00 0.00 97 1006.9
20260906095536 72 106 0.0 0.0 0.00 0.00 0.00 97 1006.9
20260906095031 72 68 0.0 0.0 0.00 0.00 0.00 97 1007.3
20260906094530 73 42 0.0 0.0 0.00 0.00 0.00 97 1007.3
20260906094026 73 90 0.0 0.0 0.00 0.00 0.00 97 1007.3
20260906093522 73 351 0.0 0.0 0.00 0.00 0.00 96 1007.3
20260906093023 73 11 0.0 0.0 0.00 0.00 0.00 96 1007.3
20260906092522 74 37 0.0 0.0 0.00 0.00 0.00 96 1007.3
20260906092018 74 331 0.0 0.0 0.00 0.00 0.00 96 1006.9
20260906091513 74 343 0.0 0.0 0.00 0.00 0.00 95 1006.9
20260906091005 75 295 0.0 0.0 0.00 0.00 0.00 95 1007.3
20260906090505 75 294 0.0 0.0 0.00 0.00 0.00 94 1007.3
20260906090004 75 348 0.0 0.0 0.00 0.00 0.00 92 1007.3
20260906085504 76 265 2.0 3.0 0.00 0.00 0.00 92 1007.3
20260906085003 76 18 0.0 0.0 0.00 0.00 0.00 93 1007.3
20260906084458 76 300 1.0 3.0 0.00 0.00 0.00 91 1006.9
20260906083957 75 218 0.0 0.0 0.00 0.00 0.00 89 1007.3
20260906083453 75 241 0.0 3.0 0.00 0.00 0.00 86 1007.6
20260906082952 75 115 1.0 3.0 0.00 0.00 0.00 84 1007.3
20260906082447 74 95 1.0 3.0 0.00 0.00 0.00 91 1007.3
20260906081943 74 89 3.0 5.0 0.00 0.00 0.00 93 1007.6
20260906081438 74 10 0.0 0.0 0.00 0.00 0.00 93 1007.9
20260906080934 75 66 7.0 7.0 0.00 0.00 0.00 94 1007.9
20260906080431 75 31 0.0 0.0 0.00 0.00 0.00 95 1007.9
20260906075930 75 46 3.0 5.0 0.00 0.00 0.00 95 1007.9
20260906075425 76 359 4.0 5.0 0.00 0.00 0.00 96 1008.3
20260906074921 76 9 3.0 5.0 0.00 0.00 0.00 96 1008.3
20260906074420 76 61 1.0 3.0 0.00 0.00 0.00 96 1008.3
20260906073920 76 79 3.0 7.0 0.00 0.00 0.00 96 1008.3
20260906073414 76 39 4.0 5.0 0.00 0.00 0.00 97 1008.6
20260906072911 76 104 1.0 3.0 0.00 0.00 0.00 97 1008.3
20260906072406 76 8 5.0 7.0 0.00 0.00 0.00 97 1008.6
20260906071902 76 31 0.0 0.0 0.00 0.00 0.00 98 1008.3
20260906071357 76 348 0.0 0.0 0.00 0.00 0.00 98 1007.9
20260906070853 76 101 0.0 0.0 0.00 0.00 0.00 98 1007.6
20260906070349 76 45 0.0 0.0 0.00 0.00 0.00 98 1007.9
20260906065844 76 8 0.0 0.0 0.00 0.00 0.00 98 1007.9
20260906065338 76 44 0.0 0.0 0.00 0.00 0.00 98 1007.9
20260906064834 76 96 0.0 0.0 0.00 0.00 0.00 98 1007.9
20260906064331 76 80 0.0 0.0 0.00 0.00 0.00 98 1007.9
20260906063830 76 124 0.0 0.0 0.00 0.00 0.00 98 1007.9
20260906063326 76 78 0.0 0.0 0.00 0.00 0.00 98 1007.9
20260906062821 76 128 0.0 0.0 0.00 0.00 0.00 98 1007.6
20260906062320 75 94 0.0 0.0 0.00 0.00 0.00 98 1007.6
20260906061816 75 145 0.0 0.0 0.00 0.00 0.00 98 1007.9
20260906061312 75 114 0.0 0.0 0.00 0.00 0.00 98 1007.6
20260906060806 75 142 0.0 0.0 0.00 0.00 0.00 98 1007.9
20260906060304 75 172 0.0 0.0 0.00 0.00 0.00 98 1007.9
20260906055800 75 1 0.0 0.0 0.00 0.00 0.00 98 1007.9
20260906055255 75 340 0.0 0.0 0.00 0.00 0.00 98 1007.9
20260906054750 75 52 0.0 0.0 0.00 0.00 0.00 98 1007.9
20260906054245 75 9 0.0 0.0 0.00 0.00 0.00 98 1007.9
20260906053742 75 2 0.0 0.0 0.00 0.00 0.00 98 1007.6
20260906053238 75 34 0.0 0.0 0.00 0.00 0.00 98 1007.6
20260906052732 75 86 0.0 0.0 0.00 0.00 0.00 98 1007.6
20260906052228 75 100 0.0 0.0 0.00 0.00 0.00 98 1007.6
20260906051725 75 299 0.0 0.0 0.00 0.00 0.00 98 1007.3
20260906051225 75 295 0.0 0.0 0.00 0.00 0.00 98 1007.3
20260906050720 75 291 0.0 0.0 0.00 0.00 0.00 98 1007.6
20260906050215 75 159 0.0 0.0 0.00 0.00 0.00 98 1007.6
20260906045713 75 196 0.0 0.0 0.00 0.00 0.00 98 1007.6
20260906045209 75 166 0.0 0.0 0.00 0.00 0.00 98 1007.6
20260906044705 75 190 0.0 0.0 0.00 0.00 0.00 98 1007.6
20260906044200 75 154 0.0 0.0 0.00 0.00 0.00 98 1007.6
20260906043656 75 156 0.0 0.0 0.00 0.00 0.00 97 1007.9
20260906043151 76 53 0.0 0.0 0.00 0.00 0.00 97 1007.9
20260906042651 76 118 0.0 0.0 0.00 0.00 0.00 97 1007.9
20260906042150 76 52 0.0 0.0 0.00 0.00 0.00 97 1007.9
20260906041646 76 109 0.0 0.0 0.00 0.00 0.00 97 1007.6
20260906041141 76 122 0.0 0.0 0.00 0.00 0.00 97 1007.9
20260906040637 76 20 0.0 0.0 0.00 0.00 0.00 97 1007.9
20260906040132 76 31 0.0 0.0 0.00 0.00 0.00 97 1007.9
20260906035627 77 115 0.0 0.0 0.00 0.00 0.00 97 1007.9
20260906035123 77 109 0.0 0.0 0.00 0.00 0.00 97 1007.9
20260906034623 77 109 0.0 0.0 0.00 0.00 0.00 97 1007.9
20260906034118 77 107 0.0 0.0 0.00 0.00 0.00 97 1008.3
20260906033614 77 19 0.0 0.0 0.00 0.00 0.00 96 1007.9
20260906033108 77 17 0.0 0.0 0.00 0.00 0.00 96 1007.9
20260906032606 77 15 0.0 0.0 0.00 0.00 0.00 96 1007.9
20260906032105 77 220 0.0 0.0 0.00 0.00 0.00 96 1007.6
20260906031601 78 79 0.0 0.0 0.00 0.00 0.00 96 1007.9
20260906031056 78 134 0.0 0.0 0.00 0.00 0.00 95 1007.9
20260906030555 78 137 0.0 0.0 0.00 0.00 0.00 95 1007.6
20260906030055 78 189 0.0 0.0 0.00 0.00 0.00 95 1007.6
20260906025555 78 205 0.0 0.0 0.00 0.00 0.00 95 1007.3
20260906025054 78 245 0.0 0.0 0.00 0.00 0.00 95 1007.6
20260906024549 79 23 0.0 0.0 0.00 0.00 0.00 94 1007.6
20260906024049 79 9 0.0 0.0 0.00 0.00 0.00 94 1007.3
20260906023545 79 80 0.0 0.0 0.00 0.00 0.00 93 1007.3
20260906023039 79 254 0.0 0.0 0.00 0.00 0.00 93 1007.3
20260906022535 79 10 0.0 0.0 0.00 0.00 0.00 92 1007.3
20260906022030 79 330 0.0 0.0 0.00 0.00 0.00 92 1007.3
20260906021526 79 218 0.0 0.0 0.00 0.00 0.00 91 1006.9
20260906021020 79 55 0.0 0.0 0.00 0.00 0.00 90 1007.3
20260906020519 79 143 0.0 0.0 0.00 0.00 0.00 89 1007.3
20260906020019 79 156 0.0 0.0 0.00 0.00 0.00 89 1007.3
20260906015518 79 131 0.0 0.0 0.00 0.00 0.00 90 1007.6
20260906015018 79 160 0.0 0.0 0.00 0.00 0.00 90 1007.3
20260906014513 79 121 0.0 0.0 0.00 0.00 0.00 90 1007.3
20260906014009 79 95 0.0 0.0 0.00 0.00 0.00 91 1007.3
20260906013504 79 122 0.0 0.0 0.00 0.00 0.00 91 1006.9
20260906012959 80 114 0.0 0.0 0.00 0.00 0.00 92 1006.9
20260906012454 80 118 0.0 0.0 0.00 0.00 0.00 92 1006.9
20260906011953 80 147 0.0 0.0 0.00 0.00 0.00 91 1006.9
20260906011449 81 153 0.0 0.0 0.00 0.00 0.00 91 1006.6
20260906010944 81 122 0.0 0.0 0.00 0.00 0.00 91 1006.2
20260906010440 81 89 0.0 0.0 0.00 0.00 0.00 90 1006.6
20260906005936 82 106 0.0 0.0 0.00 0.00 0.00 89 1006.6
20260906005435 82 145 0.0 0.0 0.00 0.00 0.00 89 1006.2
20260906004934 82 105 0.0 0.0 0.00 0.00 0.00 88 1006.2
20260906004428 83 126 0.0 0.0 0.00 0.00 0.00 86 1006.2
20260906003924 83 229 0.0 0.0 0.00 0.00 0.00 85 1006.2
20260906003419 84 171 0.0 0.0 0.00 0.00 0.00 83 1006.2
20260906002915 84 152 0.0 0.0 0.00 0.00 0.00 83 1006.6
20260906002414 84 175 0.0 0.0 0.00 0.00 0.00 84 1006.6
20260906001915 85 240 0.0 0.0 0.00 0.00 0.00 83 1006.6
20260906001410 85 160 0.0 0.0 0.00 0.00 0.00 82 1006.6
20260906000911 86 206 0.0 0.0 0.00 0.00 0.00 81 1006.2
20260906000406 86 279 0.0 0.0 0.00 0.00 0.00 80 1006.6
20260905235901 86 58 0.0 0.0 0.00 0.00 0.00 79 1006.2
20260905235355 87 209 0.0 3.0 0.00 0.00 0.00 78 1006.6
20260905234850 87 94 0.0 0.0 0.00 0.00 0.00 76 1006.6
20260905234345 87 56 0.0 0.0 0.00 0.00 0.00 77 1006.6
20260905233840 87 130 0.0 0.0 0.00 0.00 0.00 75 1006.6
20260905233335 87 244 0.0 0.0 0.00 0.00 0.00 73 1006.6
20260905232834 87 243 0.0 0.0 0.00 0.00 0.00 72 1006.6
20260905232331 87 89 0.0 0.0 0.00 0.00 0.00 72 1006.2
20260905231826 87 97 0.0 0.0 0.00 0.00 0.00 72 1006.6
20260905231321 88 176 0.0 0.0 0.00 0.00 0.00 72 1006.6
20260905230818 88 225 0.0 0.0 0.00 0.00 0.00 71 1006.2
20260905230315 88 9 0.0 0.0 0.00 0.00 0.00 74 1006.2
20260905225815 88 251 0.0 0.0 0.00 0.00 0.00 70 1006.2
20260905225310 88 183 0.0 0.0 0.00 0.00 0.00 67 1006.2
20260905224810 87 99 0.0 3.0 0.00 0.00 0.00 65 1006.2
20260905224305 87 39 0.0 0.0 0.00 0.00 0.00 66 1006.6
20260905223800 87 36 3.0 5.0 0.00 0.00 0.00 66 1006.2
20260905223258 87 133 0.0 0.0 0.00 0.00 0.00 67 1006.2
20260905222753 88 283 0.0 0.0 0.00 0.00 0.00 68 1006.2
20260905222252 88 147 1.0 3.0 0.00 0.00 0.00 69 1006.2
20260905221748 89 120 0.0 0.0 0.00 0.00 0.00 70 1006.2
20260905221244 91 80 10.0 12.0 0.00 0.00 0.00 68 1006.6
20260905220740 92 112 8.0 10.0 0.00 0.00 0.00 66 1006.6
20260905220236 94 88 7.0 10.0 0.00 0.00 0.00 66 1006.6
20260905215735 96 71 6.0 10.0 0.00 0.00 0.00 65 1006.6
20260905215231 98 82 7.0 10.0 0.00 0.00 0.00 63 1006.2
20260905214727 99 142 6.0 7.0 0.00 0.00 0.00 61 1006.6
20260905214222 100 108 0.0 3.0 0.00 0.00 0.00 56 1006.6
20260905213718 100 74 4.0 5.0 0.00 0.00 0.00 55 1005.9
20260905213214 101 178 0.0 0.0 0.00 0.00 0.00 56 1005.9
20260905212708 101 296 0.0 0.0 0.00 0.00 0.00 55 1005.9
20260905212208 101 184 0.0 0.0 0.00 0.00 0.00 55 1005.9
20260905211702 101 261 0.0 0.0 0.00 0.00 0.00 51 1005.9
20260905211158 101 307 0.0 0.0 0.00 0.00 0.00 54 1005.9
20260905210654 101 140 0.0 0.0 0.00 0.00 0.00 53 1005.9
20260905210154 101 164 0.0 0.0 0.00 0.00 0.00 53 1005.9
20260905205653 101 66 0.0 0.0 0.00 0.00 0.00 54 1005.9
20260905205153 101 20 0.0 0.0 0.00 0.00 0.00 53 1005.9
20260905204652 101 145 0.0 0.0 0.00 0.00 0.00 55 1006.2
20260905204148 101 165 0.0 0.0 0.00 0.00 0.00 55 1006.2
20260905203642 101 76 0.0 0.0 0.00 0.00 0.00 54 1006.2
20260905203138 101 340 0.0 0.0 0.00 0.00 0.00 52 1006.2
20260905202633 101 199 0.0 0.0 0.00 0.00 0.00 54 1006.2
20260905202128 101 246 0.0 0.0 0.00 0.00 0.00 57 1006.2
20260905201624 101 251 0.0 0.0 0.00 0.00 0.00 56 1006.2
20260905201123 101 347 0.0 0.0 0.00 0.00 0.00 53 1006.6
20260905200619 100 217 0.0 0.0 0.00 0.00 0.00 54 1006.6
20260905200115 100 358 0.0 0.0 0.00 0.00 0.00 54 1006.6
20260905195613 100 51 0.0 0.0 0.00 0.00 0.00 54 1006.6
20260905195109 100 52 1.0 3.0 0.00 0.00 0.00 54 1006.9
20260905194608 100 226 2.0 3.0 0.00 0.00 0.00 56 1006.9
20260905194108 100 129 0.0 0.0 0.00 0.00 0.00 54 1007.3
20260905193603 100 64 0.0 0.0 0.00 0.00 0.00 62 1007.3
20260905193058 100 251 0.0 3.0 0.00 0.00 0.00 60 1007.3
20260905192553 101 271 0.0 0.0 0.00 0.00 0.00 63 1006.9
20260905192049 100 25 0.0 0.0 0.00 0.00 0.00 58 1006.9
20260905191548 100 254 0.0 0.0 0.00 0.00 0.00 55 1007.3
20260905191042 100 29 6.0 7.0 0.00 0.00 0.00 54 1007.3
20260905190540 100 46 3.0 5.0 0.00 0.00 0.00 54 1007.3
20260905190039 99 318 0.0 0.0 0.00 0.00 0.00 56 1007.6
20260905185539 99 116 0.0 0.0 0.00 0.00 0.00 56 1007.6
20260905185038 99 210 0.0 0.0 0.00 0.00 0.00 58 1007.6
20260905184539 98 275 0.0 0.0 0.00 0.00 0.00 62 1007.6
20260905184038 98 139 0.0 0.0 0.00 0.00 0.00 58 1007.9
20260905183537 98 318 0.0 3.0 0.00 0.00 0.00 59 1007.9
20260905183033 98 64 0.0 0.0 0.00 0.00 0.00 56 1008.3
20260905182533 98 137 1.0 3.0 0.00 0.00 0.00 57 1007.9
20260905182032 98 146 0.0 0.0 0.00 0.00 0.00 57 1007.9
20260905181527 98 93 0.0 0.0 0.00 0.00 0.00 59 1008.3
20260905181026 98 4 0.0 3.0 0.00 0.00 0.00 63 1008.3
20260905180521 98 206 0.0 0.0 0.00 0.00 0.00 64 1008.3
20260905180017 98 257 0.0 0.0 0.00 0.00 0.00 64 1008.3
20260905175516 98 136 0.0 0.0 0.00 0.00 0.00 63 1008.3
20260905175012 97 137 0.0 0.0 0.00 0.00 0.00 60 1008.6
20260905174507 97 205 0.0 0.0 0.00 0.00 0.00 61 1008.3
20260905174002 97 104 0.0 0.0 0.00 0.00 0.00 62 1008.6
20260905173459 97 321 0.0 0.0 0.00 0.00 0.00 67 1008.6
20260905172954 97 341 2.0 3.0 0.00 0.00 0.00 65 1008.3
20260905172452 97 225 0.0 0.0 0.00 0.00 0.00 68 1008.6
20260905171948 97 107 0.0 0.0 0.00 0.00 0.00 62 1008.6
20260905171444 96 39 0.0 0.0 0.00 0.00 0.00 62 1008.6
20260905170940 96 156 0.0 0.0 0.00 0.00 0.00 64 1008.6
20260905170436 96 87 0.0 0.0 0.00 0.00 0.00 64 1008.6
20260905165936 96 96 0.0 0.0 0.00 0.00 0.00 63 1008.6
20260905165431 96 68 0.0 3.0 0.00 0.00 0.00 66 1009.0
20260905164926 95 350 0.0 3.0 0.00 0.00 0.00 75 1009.0
20260905164425 95 56 4.0 5.0 0.00 0.00 0.00 67 1009.0
20260905163920 95 204 0.0 0.0 0.00 0.00 0.00 71 1009.0
20260905163417 95 309 0.0 0.0 0.00 0.00 0.00 68 1009.0
20260905162913 95 208 0.0 0.0 0.00 0.00 0.00 69 1009.3
20260905162408 95 278 0.0 0.0 0.00 0.00 0.00 68 1009.3
20260905161903 94 74 1.0 3.0 0.00 0.00 0.00 67 1009.3
20260905161401 94 349 0.0 0.0 0.00 0.00 0.00 72 1009.3
20260905160900 94 110 0.0 0.0 0.00 0.00 0.00 69 1009.6
20260905160354 93 162 0.0 0.0 0.00 0.00 0.00 70 1009.6
20260905155849 93 271 0.0 0.0 0.00 0.00 0.00 79 1009.6
20260905155348 93 135 0.0 0.0 0.00 0.00 0.00 75 1009.6
20260905154847 93 279 0.0 3.0 0.00 0.00 0.00 74 1009.6
20260905154343 92 47 0.0 0.0 0.00 0.00 0.00 75 1009.6
20260905153838 92 15 0.0 0.0 0.00 0.00 0.00 75 1009.6
20260905153335 92 82 0.0 3.0 0.00 0.00 0.00 76 1010.0
20260905152835 92 65 0.0 0.0 0.00 0.00 0.00 79 1009.6
20260905152334 91 255 0.0 0.0 0.00 0.00 0.00 80 1010.0
20260905151829 91 99 0.0 0.0 0.00 0.00 0.00 79 1009.6
20260905151325 90 10 0.0 0.0 0.00 0.00 0.00 76 1009.6
20260905150824 90 97 0.0 0.0 0.00 0.00 0.00 78 1009.3
20260905150319 89 124 0.0 0.0 0.00 0.00 0.00 81 1009.6
20260905145817 89 214 0.0 0.0 0.00 0.00 0.00 80 1009.6
20260905145316 88 2 0.0 0.0 0.00 0.00 0.00 81 1009.6
20260905144815 88 341 0.0 0.0 0.00 0.00 0.00 82 1009.6
20260905144311 88 62 0.0 0.0 0.00 0.00 0.00 82 1010.0
20260905143810 87 10 0.0 3.0 0.00 0.00 0.00 83 1010.0
20260905143304 87 29 0.0 0.0 0.00 0.00 0.00 85 1010.0
20260905142803 86 37 0.0 0.0 0.00 0.00 0.00 85 1010.0
20260905142257 86 25 0.0 0.0 0.00 0.00 0.00 85 1010.0
20260905141754 85 75 0.0 0.0 0.00 0.00 0.00 84 1010.0
20260905141249 84 214 0.0 0.0 0.00 0.00 0.00 88 1010.0
20260905140745 82 101 0.0 0.0 0.00 0.00 0.00 89 1010.0
20260905140244 81 163 0.0 0.0 0.00 0.00 0.00 92 1010.3
20260905135743 80 132 0.0 0.0 0.00 0.00 0.00 95 1010.0
20260905135240 79 92 0.0 0.0 0.00 0.00 0.00 97 1010.0